Temperature
16 16 16 16 16 15 15 15 15 15 14 14 14 14 14 14 14 14 14 13 13 13 13 13 13 13 13 13 13 13 13 13 13 13 13 13 13 14 14 14 14 14 14
16 16 16 16 15 15 15 15 14 14 14 14 14 14 14 14 13 13 13 13 13 13 13 13 13 13 13 13 13 13 13 13 12 13 13 13 13 13 13 14 14 14 14
16 16 16 15 15 15 15 14 14 14 14 14 14 13 13 13 13 13 13 13 13 13 13 13 13 13 13 13 13 13 12 12 12 12 13 13 13 13 13 13 13 14 14
16 16 15 15 15 14 14 14 14 14 14 13 13 13 13 13 13 13 13 13 13 13 12 12 12 12 12 12 12 12 12 12 12 12 12 12 13 13 13 13 13 13 13
16 15 15 15 14 14 14 14 13 13 13 13 13 13 13 13 12 12 12 12 12 12 12 12 12 12 12 12 12 12 12 12 11 11 12 12 12 12 12 12 12 13 13
15 15 15 14 14 14 14 13 13 13 13 13 13 12 12 12 12 12 12 12 12 12 12 12 12 12 12 11 11 11 11 11 11 11 11 11 11 12 12 12 12 12 12
15 15 14 14 14 13 13 13 13 12 12 12 12 12 12 12 12 11 11 11 11 11 11 11 11 11 11 11 11 11 11 11 10 10 10 11 11 11 11 11 11 11 12
15 14 14 14 13 13 13 13 12 12 12 12 12 11 11 11 11 11 11 11 11 11 11 10 10 10 10 10 10 10 11 11 10 10 10 10 10 10 10 10 11 11 11
14 14 14 13 13 13 13 12 12 12 12 11 11 11 11 11 10 10 10 10 10 10 10 10 10 10 10 10 10 10 10 10 10 10 10 10 10 10 10 10 10 10 10
14 14 13 13 13 12 12 12 11 11 11 11 11 10 10 10 10 10 9 10 10 10 10 10 10 9 9 9 9 9 9 9 9 10 10 10 10 10 10 10 10 10 10
14 13 13 12 12 12 11 11 11 11 11 11 10 10 10 10 9 9 9 9 9 9 9 9 9 9 9 8 8 8 8 8 9 9 9 9 10 10 9 9 9 9 9
13 13 12 12 12 11 11 11 10 10 10 10 10 10 10 9 9 9 9 8 8 8 8 8 8 8 8 8 8 8 8 8 8 8 8 9 9 9 9 9 9 9 9
13 12 12 12 11 11 11 10 10 10 10 10 9 9 9 9 9 8 8 8 8 8 8 8 8 8 7 7 8 8 8 8 8 8 8 8 8 8 8 8 9 9 9
13 12 12 11 11 11 10 10 10 10 9 9 9 9 9 8 8 8 8 8 7 7 7 7 7 7 7 7 7 7 7 7 7 7 7 7 7 7 7 7 8 8 8
12 12 11 11 11 10 10 10 10 9 9 9 8 8 8 8 8 7 7 7 7 7 7 7 7 7 7 7 7 7 7 6 6 6 6 6 6 6 6 7 7 7 7
12 11 11 11 11 10 10 10 9 9 9 8 8 8 8 7 7 7 7 7 6 6 6 6 6 6 6 6 6 6 6 6 5 5 5 5 5 5 5 6 6 6 6
12 11 11 11 10 10 10 9 9 9 8 8 8 7 7 7 7 7 6 6 6 6 6 6 5 5 5 5 5 5 5 5 5 4 4 4 4 5 5 5 5 5 6
11 11 11 10 10 10 9 9 9 8 8 8 8 7 7 7 7 6 6 6 6 6 5 5 5 5 5 4 4 4 4 4 4 4 4 4 4 4 4 4 4 5 5
11 11 10 10 10 9 9 9 8 8 8 7 7 7 7 7 6 6 6 6 5 5 5 5 4 4 4 4 4 4 3 3 3 3 3 3 3 3 3 4 4 4 4
11 10 10 10 9 9 9 8 8 8 7 7 7 7 6 6 6 6 5 5 5 5 4 4 4 4 4 4 3 3 3 3 3 3 3 3 3 3 3 3 3 4 4
10 10 10 9 9 9 8 8 8 7 7 7 7 6 6 6 5 5 5 5 5 4 4 4 4 3 3 3 3 3 3 3 3 3 3 3 2 3 3 3 3 3 4
10 10 9 9 9 8 8 8 7 7 7 7 6 6 6 5 5 5 5 5 4 4 4 4 3 3 3 3 2 2 2 2 2 2 2 2 2 2 2 3 3 3 3
10 9 9 9 8 8 8 7 7 7 6 6 6 6 5 5 5 5 5 4 4 4 4 3 3 3 3 2 2 2 2 2 2 2 2 2 2 2 2 2 2 3 3
9 9 8 8 8 8 7 7 7 6 6 6 5 5 5 5 5 4 4 4 4 4 3 3 3 3 2 2 2 2 2 1 1 1 1 1 1 1 2 2 2 2 3
9 8 8 8 7 7 7 7 6 6 6 5 5 5 5 4 4 4 4 4 3 3 3 3 2 2 2 2 2 1 1 1 1 1 1 1 1 1 1 1 2 2 2
8 8 8 7 7 7 6 6 6 6 5 5 5 4 4 4 4 3 3 3 3 3 3 2 2 2 2 1 1 1 1 1 1 1 0 0 1 1 1 1 2 2 2
Wind_Speed
4 4 4 3 3 3 3 2 2 2 3 3 3 3 4 4 3 3 3 3 4 4 4 3 4 3 3 3 2 1 0 1 3 4 3 3 3 4 5 5 5 4 5
4 4 4 3 4 4 3 3 3 3 3 3 3 4 4 4 4 3 4 4 3 4 4 4 4 3 3 3 2 2 1 1 2 4 4 3 3 4 4 4 4 4 5
5 5 5 4 4 3 3 3 3 3 4 4 4 4 3 3 3 3 3 3 3 3 3 3 4 4 4 3 3 3 2 2 2 3 4 3 3 3 3 4 4 3 5
5 5 4 3 2 2 2 3 3 3 4 4 4 3 3 3 3 3 3 3 3 4 4 3 3 3 3 3 3 3 3 2 2 3 4 4 3 3 2 3 4 3 4
6 5 3 2 3 3 3 3 3 4 4 3 4 4 4 3 3 3 3 3 3 4 5 4 4 5 5 4 3 3 2 2 2 3 4 4 4 3 3 3 4 5 4
6 5 3 3 4 3 3 3 4 4 4 4 4 4 4 4 6 6 4 2 2 3 5 5 6 5 8 8 8 6 4 3 3 3 4 5 6 5 4 4 4 4 4
6 4 4 4 3 3 3 4 4 3 3 4 4 4 4 5 8 8 7 3 2 3 4 5 6 7 8 5 8 9 7 8 7 5 6 7 7 6 5 5 5 6 7
5 4 4 4 3 2 3 3 2 2 2 2 3 3 3 5 9 8 8 4 3 4 4 4 5 6 7 7 6 7 7 7 8 6 7 9 9 7 6 7 7 7 6
5 5 4 4 4 3 2 1 1 1 2 2 2 3 3 6 9 9 8 3 3 5 5 5 5 6 11 11 6 7 9 9 10 12 14 14 16 15 10 5 5 5 6
6 5 4 4 4 3 2 1 0 0 0 2 2 3 3 5 8 9 8 2 3 5 5 6 8 10 12 12 6 6 8 10 9 10 10 12 11 11 12 8 7 7 6
6 5 4 4 4 3 2 1 1 0 1 2 3 4 4 5 7 9 8 3 3 4 5 5 6 12 14 14 11 7 11 12 8 8 8 7 7 7 7 7 7 8 8
6 5 4 3 3 3 2 1 1 1 1 2 2 4 4 5 5 7 9 8 7 4 5 5 7 13 14 15 11 12 15 13 6 6 7 7 7 7 8 8 9 10 11
6 5 4 3 2 2 3 2 1 0 0 1 2 3 4 4 5 9 9 10 10 5 5 10 12 14 13 10 12 15 12 6 5 6 8 8 7 8 8 7 8 9 10
7 5 4 3 2 2 2 2 2 2 2 2 3 3 4 4 5 5 5 6 7 7 6 9 12 12 8 9 10 9 6 6 6 7 8 8 7 7 8 7 8 7 7
7 5 4 4 3 3 2 3 4 4 5 4 4 4 4 5 7 8 6 5 5 6 7 5 5 5 6 6 6 6 6 6 6 6 7 8 9 9 9 7 6 6 8
6 5 4 4 3 3 2 3 5 6 7 8 7 7 6 8 11 11 12 11 11 11 7 5 6 6 7 7 7 8 6 6 7 7 8 8 9 9 9 8 7 8 9
8 7 5 4 4 4 3 3 3 5 6 7 8 9 9 10 11 12 12 11 10 9 4 5 6 7 8 7 7 8 8 8 7 7 8 9 9 9 9 9 9 9 9
8 8 7 5 5 5 4 4 4 4 4 5 6 9 10 11 11 12 11 8 6 5 4 6 7 8 8 8 8 8 8 8 8 8 8 9 9 10 10 10 9 10 10
7 6 5 5 5 5 5 4 4 5 5 5 5 7 10 9 10 10 8 4 6 7 6 7 7 8 8 8 8 9 9 9 9 9 9 9 9 9 10 10 10 12 11
7 10 8 5 5 5 5 5 5 5 5 6 6 7 5 4 5 6 5 5 6 7 8 8 8 8 8 9 9 9 9 9 9 9 9 9 9 9 11 12 11 11 10
6 7 10 6 5 6 5 6 6 6 6 7 7 8 9 6 7 8 8 7 8 8 9 8 8 9 9 8 8 9 11 10 9 10 10 10 10 10 10 11 11 11 11
6 6 6 6 6 6 6 6 6 6 7 8 7 8 12 7 7 8 8 9 9 8 8 8 9 8 8 9 9 10 10 10 10 10 10 10 10 10 11 11 11 11 10
6 6 6 6 6 7 7 6 6 7 7 8 8 7 7 7 8 9 9 9 9 9 8 8 9 9 9 10 10 10 11 11 10 11 11 12 11 11 11 12 13 13 11
6 7 7 6 6 6 7 7 7 7 8 8 8 8 8 8 9 10 10 9 9 9 9 9 10 12 14 13 12 12 13 14 13 12 13 13 13 12 12 12 13 13 12
6 7 7 7 7 7 7 7 7 7 8 8 8 8 8 9 9 10 9 9 10 10 11 11 10 11 14 16 16 15 18 21 20 16 13 12 14 14 14 14 13 13 12
7 7 7 6 6 7 7 7 7 8 8 8 8 8 9 9 10 10 9 9 9 10 11 10 12 14 16 16 17 20 22 22 21 21 16 12 13 13 13 12 14 13 12
Wind_Direction
113 111 99 85 77 73 62 28 13 11 11 16 14 24 21 15 15 25 16 17 21 5 6 10 355 354 357 356 360 3 283 199 259 291 283 302 308 313 322 322 308 296 294
119 110 100 86 76 69 50 27 28 28 18 22 32 34 26 19 17 19 7 12 13 356 348 355 344 354 353 348 353 342 316 250 238 287 300 306 298 300 303 307 309 298 287
114 106 94 82 78 70 51 37 37 37 30 29 38 31 18 14 16 15 17 16 10 355 349 347 335 348 339 333 332 327 315 314 265 274 296 296 293 301 308 303 298 295 288
114 107 100 92 90 78 59 48 42 44 42 32 29 22 16 18 19 14 19 24 12 358 352 346 338 336 323 322 327 316 314 317 313 301 300 301 293 301 300 299 306 296 285
118 113 117 108 90 74 60 48 45 45 42 34 32 20 12 17 19 17 12 25 8 352 347 342 337 340 342 337 332 315 319 311 310 306 301 307 301 305 295 289 293 298 287
123 124 117 100 83 69 56 49 47 37 29 35 31 23 17 12 10 21 29 29 3 351 339 331 326 331 337 336 326 319 312 298 288 283 286 285 285 280 281 281 281 293 290
129 124 116 108 94 74 68 62 49 34 35 32 19 18 6 351 8 17 22 37 360 333 325 324 331 333 333 317 321 323 308 297 284 274 272 273 276 271 269 278 271 264 263
134 132 129 122 111 93 81 70 48 43 39 26 10 1 356 354 6 9 11 23 355 331 318 309 306 311 319 322 318 318 307 299 284 279 265 269 272 268 254 261 268 275 274
146 150 150 142 132 118 106 92 70 61 29 7 348 351 347 335 352 357 2 357 344 328 321 321 318 309 318 327 320 308 306 303 299 291 286 282 280 278 271 269 266 269 279
169 168 161 155 149 152 162 164 150 117 341 344 346 336 330 321 339 351 356 349 331 321 319 317 322 322 322 326 314 300 300 299 303 307 302 297 288 280 273 254 245 253 265
164 154 153 159 164 167 159 155 149 107 17 353 336 323 317 313 326 341 346 346 312 308 311 310 310 320 320 320 315 296 294 302 300 296 296 296 293 285 275 260 248 243 250
150 150 157 165 168 150 143 143 135 120 30 332 327 323 316 315 321 328 337 335 329 301 296 295 299 315 317 317 315 308 309 313 303 300 296 292 290 289 283 273 262 254 250
151 160 169 167 168 160 162 174 186 189 225 281 291 301 305 309 315 326 330 331 330 320 296 304 310 314 316 313 310 313 315 307 297 295 294 291 285 281 283 282 276 269 265
162 173 176 176 189 194 192 192 196 218 236 254 265 276 289 300 300 301 304 311 318 318 310 310 314 314 307 301 308 310 303 291 292 284 288 289 291 289 285 279 279 279 278
171 179 184 189 195 210 226 222 220 227 216 222 238 244 260 283 283 289 297 298 299 295 306 306 310 311 313 309 304 299 296 299 297 289 289 295 296 293 291 285 276 277 273
176 188 192 194 199 203 224 275 264 249 263 258 251 250 255 261 281 293 299 301 305 309 314 303 301 298 298 299 300 301 296 293 290 289 289 288 290 291 293 291 281 273 270
184 192 193 194 199 203 206 220 272 297 292 282 276 277 274 281 287 291 296 301 304 311 301 290 292 292 289 288 288 291 293 292 289 288 289 290 290 290 292 292 287 279 273
191 199 196 198 202 205 210 217 222 242 278 289 288 286 287 286 287 288 294 304 302 300 274 278 283 285 286 285 284 286 288 291 289 286 286 286 287 288 288 288 286 280 276
192 198 199 200 204 209 214 220 229 238 247 263 282 292 289 291 290 287 291 271 273 281 279 276 276 278 282 282 281 281 282 284 285 285 284 283 283 285 285 284 284 280 276
200 209 204 200 205 212 217 223 233 240 249 256 262 268 280 287 285 288 279 267 267 271 273 275 276 276 277 279 281 281 282 282 283 283 283 282 279 279 281 282 281 280 276
199 210 213 209 209 215 221 228 233 237 246 253 258 260 261 263 266 270 272 268 265 268 270 271 273 276 277 278 279 280 280 282 281 281 282 282 281 281 280 279 278 276 275
197 205 206 211 217 221 228 230 233 238 245 253 263 270 273 263 260 264 266 267 264 262 262 265 270 271 271 274 277 279 281 283 282 281 283 284 282 281 281 280 279 275 271
199 206 214 220 222 231 236 234 234 240 247 252 257 264 267 262 261 263 265 268 268 268 266 264 268 274 273 272 270 269 273 277 279 280 282 285 284 282 281 280 280 278 270
202 209 217 223 225 226 232 238 239 243 248 253 257 259 262 263 265 266 267 269 270 270 269 267 268 271 274 278 276 271 269 271 277 279 278 280 283 282 280 279 277 274 267
205 211 217 222 226 230 235 240 244 247 250 253 257 261 263 264 266 268 268 268 270 271 270 271 274 275 275 277 277 276 275 275 276 279 281 278 278 277 277 276 273 272 266
210 216 221 224 228 231 234 241 247 249 251 255 257 259 262 265 267 270 269 269 271 273 274 274 272 274 278 280 280 279 279 279 278 278 279 278 275 274 274 273 271 267 265
Height
1557 1557 1558 1558 1558 1557 1557 1557 1556 1555 1555 1554 1553 1552 1551 1549 1548 1547 1546 1545 1544 1544 1543 1542 1540 1539 1538 1537 1536 1535 1534 1533 1531 1530 1529 1529 1528 1527 1527 1526 1526 1525 1525
1556 1557 1557 1557 1557 1557 1556 1556 1555 1555 1554 1553 1552 1551 1550 1549 1548 1547 1546 1545 1544 1543 1542 1541 1540 1539 1537 1536 1535 1534 1533 1532 1530 1528 1527 1526 1526 1525 1524 1523 1523 1522 1522
1555 1556 1556 1556 1556 1556 1555 1555 1554 1554 1553 1552 1551 1550 1549 1548 1547 1546 1545 1544 1543 1542 1541 1540 1538 1537 1536 1535 1533 1532 1531 1530 1528 1527 1525 1524 1523 1522 1521 1520 1520 1519 1519
1554 1555 1555 1555 1555 1555 1554 1554 1553 1553 1552 1551 1550 1549 1548 1547 1546 1545 1544 1543 1542 1541 1539 1538 1537 1536 1534 1533 1532 1530 1529 1527 1526 1524 1522 1521 1520 1519 1518 1517 1516 1515 1515
1553 1553 1554 1554 1554 1554 1553 1553 1552 1552 1551 1550 1549 1548 1547 1546 1544 1543 1542 1541 1540 1539 1538 1536 1535 1534 1533 1531 1530 1528 1526 1525 1523 1521 1520 1518 1517 1516 1515 1513 1512 1511 1510
1552 1552 1553 1553 1553 1553 1552 1552 1551 1550 1550 1549 1547 1546 1545 1544 1543 1542 1541 1539 1538 1537 1535 1534 1533 1531 1530 1529 1527 1526 1524 1522 1520 1518 1516 1515 1513 1512 1511 1510 1508 1507 1505
1550 1551 1551 1552 1552 1551 1551 1551 1550 1549 1548 1547 1546 1545 1544 1543 1541 1540 1539 1537 1536 1534 1533 1531 1530 1528 1527 1525 1523 1522 1521 1519 1518 1516 1513 1511 1509 1508 1507 1505 1504 1502 1501
1548 1549 1550 1550 1550 1550 1550 1549 1548 1548 1547 1546 1545 1544 1542 1541 1540 1538 1537 1535 1533 1532 1530 1528 1526 1524 1523 1521 1519 1517 1516 1515 1513 1511 1509 1507 1505 1504 1502 1501 1499 1497 1495
1546 1547 1548 1548 1548 1548 1548 1547 1547 1546 1545 1544 1543 1542 1541 1539 1538 1536 1534 1532 1531 1529 1527 1525 1523 1521 1519 1517 1515 1512 1510 1509 1507 1505 1503 1501 1500 1498 1497 1495 1493 1492 1489
1544 1545 1546 1546 1546 1546 1546 1546 1545 1544 1543 1542 1541 1540 1538 1537 1535 1533 1531 1529 1527 1526 1524 1522 1520 1517 1515 1513 1510 1508 1505 1502 1500 1498 1496 1494 1493 1492 1491 1489 1487 1485 1483
1542 1542 1543 1544 1544 1544 1544 1543 1543 1542 1541 1540 1539 1537 1536 1534 1532 1531 1529 1526 1524 1522 1520 1517 1515 1513 1511 1508 1506 1503 1500 1497 1494 1491 1489 1487 1485 1484 1483 1482 1481 1479 1477
1539 1540 1541 1541 1541 1542 1541 1541 1540 1539 1538 1537 1536 1535 1533 1532 1530 1528 1526 1524 1521 1519 1516 1513 1511 1508 1506 1503 1501 1498 1495 1492 1488 1485 1482 1480 1478 1476 1475 1473 1472 1471 1470
1536 1537 1538 1539 1539 1539 1539 1538 1537 1537 1535 1534 1533 1531 1530 1528 1527 1525 1522 1520 1517 1515 1512 1509 1507 1504 1501 1498 1495 1493 1489 1486 1483 1479 1476 1473 1471 1468 1466 1465 1463 1462 1460
1533 1534 1535 1535 1536 1536 1535 1535 1534 1533 1532 1531 1529 1527 1526 1524 1523 1520 1518 1516 1513 1510 1507 1504 1502 1499 1496 1493 1490 1487 1484 1481 1477 1474 1470 1467 1464 1461 1459 1457 1454 1453 1451
1529 1530 1531 1532 1532 1532 1532 1532 1531 1530 1529 1527 1526 1524 1522 1520 1518 1517 1514 1511 1508 1505 1502 1499 1496 1492 1489 1486 1483 1480 1477 1474 1471 1468 1464 1460 1457 1454 1451 1449 1447 1445 1443
1525 1526 1527 1528 1528 1528 1528 1528 1527 1527 1525 1524 1522 1521 1518 1517 1514 1512 1510 1507 1504 1501 1497 1493 1490 1487 1483 1480 1477 1474 1471 1468 1465 1461 1458 1454 1451 1447 1444 1442 1440 1438 1435
1520 1522 1523 1524 1524 1524 1524 1523 1523 1522 1521 1520 1518 1516 1514 1512 1509 1507 1504 1501 1499 1496 1492 1488 1485 1481 1478 1475 1471 1468 1464 1461 1458 1455 1451 1448 1444 1440 1437 1434 1432 1430 1427
1516 1517 1518 1519 1519 1519 1519 1518 1517 1516 1515 1514 1513 1511 1509 1507 1504 1501 1499 1495 1492 1490 1486 1483 1479 1476 1472 1469 1465 1461 1458 1454 1451 1448 1444 1441 1438 1434 1430 1427 1425 1422 1419
1511 1512 1513 1513 1514 1514 1513 1513 1512 1511 1509 1508 1506 1505 1503 1501 1498 1496 1493 1490 1486 1483 1480 1476 1473 1470 1466 1462 1458 1455 1451 1447 1444 1440 1437 1434 1430 1427 1423 1420 1417 1414 1412
1505 1506 1507 1507 1508 1508 1507 1507 1506 1505 1503 1502 1500 1498 1496 1494 1491 1488 1486 1483 1480 1476 1473 1470 1466 1463 1459 1455 1451 1447 1443 1440 1436 1433 1429 1426 1423 1420 1416 1412 1409 1406 1403
1499 1500 1501 1501 1501 1501 1501 1500 1499 1498 1497 1495 1493 1492 1490 1487 1484 1481 1479 1476 1473 1469 1466 1462 1459 1455 1451 1448 1444 1440 1436 1432 1429 1425 1421 1418 1415 1412 1408 1405 1401 1399 1395
1493 1493 1494 1494 1495 1494 1494 1493 1492 1491 1490 1488 1486 1485 1483 1480 1477 1474 1471 1468 1465 1462 1458 1455 1450 1447 1443 1440 1436 1432 1428 1424 1421 1417 1414 1410 1407 1403 1400 1396 1393 1390 1388
1486 1487 1487 1488 1488 1487 1487 1486 1485 1484 1482 1480 1478 1476 1474 1472 1469 1466 1463 1460 1457 1453 1450 1446 1442 1438 1434 1431 1427 1423 1420 1416 1413 1409 1405 1401 1398 1394 1391 1387 1384 1382 1379
1479 1480 1480 1480 1480 1480 1479 1478 1477 1476 1475 1473 1470 1468 1466 1463 1461 1458 1454 1451 1448 1444 1441 1437 1433 1429 1425 1421 1417 1414 1411 1407 1404 1400 1396 1392 1388 1385 1382 1379 1376 1373 1371
1473 1473 1473 1473 1473 1472 1472 1471 1470 1468 1466 1465 1462 1460 1457 1455 1452 1448 1445 1442 1438 1434 1431 1427 1423 1419 1415 1411 1407 1404 1400 1397 1394 1390 1386 1383 1379 1375 1373 1370 1367 1365 1363
1466 1466 1466 1466 1465 1465 1464 1463 1461 1460 1458 1456 1454 1451 1449 1446 1443 1439 1436 1433 1429 1425 1421 1417 1413 1409 1405 1401 1397 1393 1390 1386 1383 1380 1376 1372 1369 1365 1363 1360 1358 1356 1355